Location: Costa Mesa
(33.6411°N, 117.9187°W)
Time: 01:28:34
(UTC+00:00)

Cosmos 1812 - Pass Details

Date: 10 September 2024
Orbit: 453 x 456 km, 82.5° (Epoch: 10 October)

Event Time Altitude Azimuth Distance (km) Brightness Sun altitude
Exits shadow 12:58:56 - 236° (SW) 1,761 4.8 -7.7°
Reaches altitude 10° 12:59:28 10° 242° (WSW) 1,611 4.6 -7.6°
Maximum altitude 13:01:46 17° 283° (WNW) 1,269 4.1 -7.1°
Drops below altitude 10° 13:04:06 10° 325° (NW) 1,625 5.0 -6.6°
Sets 13:06:48 0° 347° (NNW) 2,509 6.2 -6.1°
